Time,TemperatureF,DewpointF,PressureIn,WindDirection,WindDirectionDegrees,WindSpeedMPH,WindSpeedGustMPH,Humidity,HourlyPrecipIn,Conditions,Clouds,dailyrainin,SoftwareType,DateUTC
2013-06-15 00:07:00,61.9,59.2,30.03,NE,52,0.0,0.0,91,0.00,,,0.00,VWS V14.00,2013-06-15 04:07:00,
2013-06-15 00:08:00,61.9,59.2,30.03,NE,52,0.0,0.0,91,0.00,,,0.00,VWS V14.00,2013-06-15 04:08:00,
2013-06-15 00:13:00,61.9,59.2,30.03,NE,52,0.0,0.0,91,0.00,,,0.00,VWS V14.00,2013-06-15 04:13:00,
2013-06-15 00:18:00,61.7,59.4,30.03,NE,52,0.0,0.0,92,0.00,,,0.00,VWS V14.00,2013-06-15 04:18:00,
2013-06-15 00:23:00,61.7,59.4,30.06,NE,52,0.0,0.0,92,0.00,,,0.00,VWS V14.00,2013-06-15 04:23:00,
2013-06-15 00:28:00,61.7,59.4,30.06,NE,52,0.0,0.0,92,0.00,,,0.00,VWS V14.00,2013-06-15 04:28:00,
2013-06-15 00:33:00,61.5,59.5,30.06,NE,52,0.0,0.0,93,0.00,,,0.00,VWS V14.00,2013-06-15 04:33:00,
2013-06-15 00:38:00,61.3,59.3,30.06,NE,52,0.0,0.0,93,0.00,,,0.00,VWS V14.00,2013-06-15 04:38:00,
2013-06-15 00:43:00,61.3,59.0,30.06,NE,52,0.0,0.0,92,0.00,,,0.00,VWS V14.00,2013-06-15 04:43:00,
2013-06-15 00:48:00,61.3,59.3,30.06,NE,52,0.0,0.0,93,0.00,,,0.00,VWS V14.00,2013-06-15 04:48:00,
2013-06-15 00:53:00,61.3,59.3,30.06,NE,52,0.0,0.0,93,0.00,,,0.00,VWS V14.00,2013-06-15 04:53:00,
2013-06-15 00:58:00,61.2,59.1,30.06,NE,52,0.0,0.0,93,0.00,,,0.00,VWS V14.00,2013-06-15 04:58:00,
2013-06-15 01:04:00,61.2,59.1,30.06,NE,52,0.0,0.0,93,0.00,,,0.00,VWS V14.00,2013-06-15 05:04:00,
2013-06-15 01:09:00,61.0,59.0,30.06,NE,52,0.0,0.0,93,0.00,,,0.00,VWS V14.00,2013-06-15 05:09:00,
2013-06-15 01:14:00,61.0,59.0,30.06,NE,52,0.0,0.0,93,0.00,,,0.00,VWS V14.00,2013-06-15 05:14:00,
2013-06-15 01:19:00,60.8,58.8,30.06,NE,52,0.0,0.0,93,0.00,,,0.00,VWS V14.00,2013-06-15 05:19:00,
2013-06-15 01:24:00,60.8,58.8,30.06,NE,52,0.0,0.0,93,0.00,,,0.00,VWS V14.00,2013-06-15 05:24:00,
2013-06-15 01:30:00,60.8,58.8,30.06,NE,52,0.0,0.0,93,0.00,,,0.00,VWS V14.00,2013-06-15 05:30:00,
2013-06-15 01:35:00,60.6,58.9,30.06,NE,52,0.0,0.0,94,0.00,,,0.00,VWS V14.00,2013-06-15 05:35:00,
2013-06-15 01:40:00,60.6,58.9,30.06,NE,52,0.0,0.0,94,0.00,,,0.00,VWS V14.00,2013-06-15 05:40:00,
2013-06-15 01:45:00,60.6,58.6,30.06,NE,52,0.0,0.0,93,0.00,,,0.00,VWS V14.00,2013-06-15 05:45:00,
2013-06-15 01:50:00,60.6,58.6,30.06,NE,52,0.0,0.0,93,0.00,,,0.00,VWS V14.00,2013-06-15 05:50:00,
2013-06-15 01:55:00,60.4,58.7,30.06,NE,52,0.0,0.0,94,0.00,,,0.00,VWS V14.00,2013-06-15 05:55:00,
2013-06-15 02:00:00,60.4,58.7,30.06,NE,52,0.0,0.0,94,0.00,,,0.00,VWS V14.00,2013-06-15 06:00:00,
2013-06-15 02:05:00,60.4,58.7,30.06,NE,52,0.0,0.0,94,0.00,,,0.00,VWS V14.00,2013-06-15 06:05:00,
2013-06-15 02:10:00,60.3,58.5,30.06,NE,52,0.0,0.0,94,0.00,,,0.00,VWS V14.00,2013-06-15 06:10:00,
2013-06-15 02:15:00,60.3,58.5,30.06,NE,52,0.0,0.0,94,0.00,,,0.00,VWS V14.00,2013-06-15 06:15:00,
2013-06-15 02:20:00,60.1,58.3,30.03,NE,52,0.0,0.0,94,0.00,,,0.00,VWS V14.00,2013-06-15 06:20:00,
2013-06-15 02:25:00,60.1,58.3,30.03,NE,52,0.0,0.0,94,0.00,,,0.00,VWS V14.00,2013-06-15 06:25:00,
2013-06-15 02:30:00,60.1,58.3,30.03,NE,52,0.0,0.0,94,0.00,,,0.00,VWS V14.00,2013-06-15 06:30:00,
2013-06-15 02:36:00,60.1,58.3,30.06,NE,52,0.0,0.0,94,0.00,,,0.00,VWS V14.00,2013-06-15 06:36:00,
2013-06-15 02:41:00,59.9,58.2,30.06,NE,52,0.0,0.0,94,0.00,,,0.00,VWS V14.00,2013-06-15 06:41:00,
2013-06-15 02:46:00,59.9,58.2,30.06,NE,52,0.0,0.0,94,0.00,,,0.00,VWS V14.00,2013-06-15 06:46:00,
2013-06-15 02:51:00,59.9,58.2,30.06,NE,52,0.0,0.0,94,0.00,,,0.00,VWS V14.00,2013-06-15 06:51:00,
2013-06-15 02:56:00,59.7,58.0,30.06,NE,52,0.0,0.0,94,0.00,,,0.00,VWS V14.00,2013-06-15 06:56:00,
2013-06-15 03:01:00,59.7,58.0,30.06,NE,52,0.0,0.0,94,0.00,,,0.00,VWS V14.00,2013-06-15 07:01:00,
2013-06-15 03:06:00,59.5,57.8,30.03,NE,52,0.0,0.0,94,0.00,,,0.00,VWS V14.00,2013-06-15 07:06:00,
2013-06-15 03:11:00,59.5,58.1,30.03,NE,52,0.0,0.0,95,0.00,,,0.00,VWS V14.00,2013-06-15 07:11:00,
2013-06-15 03:16:00,59.4,57.6,30.03,NE,52,0.0,0.0,94,0.00,,,0.00,VWS V14.00,2013-06-15 07:16:00,
2013-06-15 03:21:00,59.4,57.6,30.06,NE,52,0.0,0.0,94,0.00,,,0.00,VWS V14.00,2013-06-15 07:21:00,
2013-06-15 03:27:00,59.4,57.9,30.06,NE,52,0.0,0.0,95,0.00,,,0.00,VWS V14.00,2013-06-15 07:27:00,
2013-06-15 03:32:00,59.2,57.5,30.06,NE,52,0.0,0.0,94,0.00,,,0.00,VWS V14.00,2013-06-15 07:32:00,
2013-06-15 03:37:00,59.2,57.5,30.03,NE,52,0.0,0.0,94,0.00,,,0.00,VWS V14.00,2013-06-15 07:37:00,
2013-06-15 03:42:00,59.2,57.8,30.03,NE,52,0.0,0.0,95,0.00,,,0.00,VWS V14.00,2013-06-15 07:42:00,
2013-06-15 03:47:00,59.0,57.6,30.03,NE,52,0.0,0.0,95,0.00,,,0.00,VWS V14.00,2013-06-15 07:47:00,
2013-06-15 03:52:00,59.0,57.6,30.06,NE,52,0.0,0.0,95,0.00,,,0.00,VWS V14.00,2013-06-15 07:52:00,
2013-06-15 03:57:00,58.8,57.7,30.06,NE,52,0.0,0.0,96,0.00,,,0.00,VWS V14.00,2013-06-15 07:57:00,
2013-06-15 04:02:00,58.8,57.7,30.06,ENE,75,0.0,0.0,96,0.00,,,0.00,VWS V14.00,2013-06-15 08:02:00,
2013-06-15 04:07:00,58.6,57.5,30.06,ENE,75,0.0,0.0,96,0.00,,,0.00,VWS V14.00,2013-06-15 08:07:00,
2013-06-15 04:12:00,58.6,57.5,30.06,ENE,75,0.0,0.0,96,0.00,,,0.00,VWS V14.00,2013-06-15 08:12:00,
2013-06-15 04:17:00,58.6,57.5,30.06,ENE,75,0.0,0.0,96,0.00,,,0.00,VWS V14.00,2013-06-15 08:17:00,
2013-06-15 04:22:00,58.6,57.2,30.06,ENE,75,0.0,0.0,95,0.00,,,0.00,VWS V14.00,2013-06-15 08:22:00,
2013-06-15 04:27:00,58.6,57.5,30.06,ENE,75,0.0,0.0,96,0.00,,,0.00,VWS V14.00,2013-06-15 08:27:00,
2013-06-15 04:32:00,58.6,57.2,30.06,ENE,75,0.0,0.0,95,0.00,,,0.00,VWS V14.00,2013-06-15 08:32:00,
2013-06-15 04:37:00,58.5,57.0,30.06,ENE,75,0.0,0.0,95,0.00,,,0.00,VWS V14.00,2013-06-15 08:37:00,
2013-06-15 04:42:00,58.5,57.0,30.06,ENE,75,0.0,0.0,95,0.00,,,0.00,VWS V14.00,2013-06-15 08:42:00,
2013-06-15 04:47:00,58.3,56.9,30.06,ENE,75,0.0,0.0,95,0.00,,,0.00,VWS V14.00,2013-06-15 08:47:00,
2013-06-15 04:52:00,58.3,56.9,30.06,ENE,75,0.0,0.0,95,0.00,,,0.00,VWS V14.00,2013-06-15 08:52:00,
2013-06-15 04:58:00,58.1,56.7,30.06,ENE,75,0.0,0.0,95,0.00,,,0.00,VWS V14.00,2013-06-15 08:58:00,
2013-06-15 05:03:00,58.1,56.7,30.06,ENE,75,0.0,0.0,95,0.00,,,0.00,VWS V14.00,2013-06-15 09:03:00,
2013-06-15 05:08:00,58.1,57.0,30.09,ENE,75,0.0,0.0,96,0.00,,,0.00,VWS V14.00,2013-06-15 09:08:00,
2013-06-15 05:13:00,57.9,56.8,30.09,ENE,75,0.0,0.0,96,0.00,,,0.00,VWS V14.00,2013-06-15 09:13:00,
2013-06-15 05:18:00,57.9,56.8,30.09,ENE,75,0.0,0.0,96,0.00,,,0.00,VWS V14.00,2013-06-15 09:18:00,
2013-06-15 05:23:00,57.9,56.8,30.06,ENE,75,0.0,0.0,96,0.00,,,0.00,VWS V14.00,2013-06-15 09:23:00,
2013-06-15 05:28:00,57.9,56.8,30.06,ENE,75,0.0,0.0,96,0.00,,,0.00,VWS V14.00,2013-06-15 09:28:00,
2013-06-15 05:33:00,57.7,56.6,30.06,ENE,75,0.0,0.0,96,0.00,,,0.00,VWS V14.00,2013-06-15 09:33:00,
2013-06-15 05:38:00,57.7,56.6,30.06,ENE,75,0.0,0.0,96,0.00,,,0.00,VWS V14.00,2013-06-15 09:38:00,
2013-06-15 05:43:00,57.7,56.6,30.06,ENE,75,0.0,0.0,96,0.00,,,0.00,VWS V14.00,2013-06-15 09:43:00,
2013-06-15 05:48:00,57.6,56.4,30.06,ENE,75,0.0,0.0,96,0.00,,,0.00,VWS V14.00,2013-06-15 09:48:00,
2013-06-15 05:53:00,57.6,56.4,30.09,ENE,75,0.0,0.0,96,0.00,,,0.00,VWS V14.00,2013-06-15 09:53:00,
2013-06-15 05:58:00,57.7,56.6,30.09,ENE,75,0.0,0.0,96,0.00,,,0.00,VWS V14.00,2013-06-15 09:58:00,
2013-06-15 06:13:00,57.7,56.6,30.09,ENE,75,0.0,0.0,96,0.00,,,0.00,VWS V14.00,2013-06-15 10:13:00,
2013-06-15 06:18:00,57.7,56.6,30.09,ENE,75,0.0,0.0,96,0.00,,,0.00,VWS V14.00,2013-06-15 10:18:00,
2013-06-15 06:23:00,57.7,56.6,30.09,ENE,75,0.0,0.0,96,0.00,,,0.00,VWS V14.00,2013-06-15 10:23:00,
2013-06-15 06:28:00,57.7,56.6,30.09,ENE,75,0.0,0.0,96,0.00,,,0.00,VWS V14.00,2013-06-15 10:28:00,
2013-06-15 06:33:00,57.7,56.6,30.09,ENE,75,0.0,0.0,96,0.00,,,0.00,VWS V14.00,2013-06-15 10:33:00,
2013-06-15 06:38:00,57.7,56.9,30.12,ENE,75,0.0,0.0,97,0.00,,,0.00,VWS V14.00,2013-06-15 10:38:00,
2013-06-15 06:43:00,57.7,56.9,30.12,ENE,75,0.0,0.0,97,0.00,,,0.00,VWS V14.00,2013-06-15 10:43:00,
2013-06-15 06:48:00,57.7,56.9,30.12,ENE,75,0.0,0.0,97,0.00,,,0.00,VWS V14.00,2013-06-15 10:48:00,
2013-06-15 06:53:00,57.9,57.1,30.12,ENE,75,0.0,0.0,97,0.00,,,0.00,VWS V14.00,2013-06-15 10:53:00,
2013-06-15 06:58:00,57.9,57.1,30.12,ENE,75,0.0,0.0,97,0.00,,,0.00,VWS V14.00,2013-06-15 10:58:00,
2013-06-15 07:03:00,58.1,57.3,30.12,ENE,75,0.0,0.0,97,0.00,,,0.00,VWS V14.00,2013-06-15 11:03:00,
2013-06-15 07:08:00,58.5,57.6,30.12,ENE,75,0.0,0.0,97,0.00,,,0.00,VWS V14.00,2013-06-15 11:08:00,
2013-06-15 07:14:00,58.5,57.6,30.12,ENE,75,0.0,0.0,97,0.00,,,0.00,VWS V14.00,2013-06-15 11:14:00,
2013-06-15 07:19:00,58.6,57.8,30.12,ENE,75,0.0,0.0,97,0.00,,,0.00,VWS V14.00,2013-06-15 11:19:00,
2013-06-15 07:24:00,59.0,58.2,30.12,ENE,75,0.0,0.0,97,0.00,,,0.00,VWS V14.00,2013-06-15 11:24:00,
2013-06-15 07:29:00,59.2,58.6,30.12,ENE,75,0.0,0.0,98,0.00,,,0.00,VWS V14.00,2013-06-15 11:29:00,
2013-06-15 07:34:00,59.5,58.7,30.12,ENE,75,0.0,0.0,97,0.00,,,0.00,VWS V14.00,2013-06-15 11:34:00,
2013-06-15 07:39:00,59.7,59.2,30.12,ENE,75,0.0,0.0,98,0.00,,,0.00,VWS V14.00,2013-06-15 11:39:00,
2013-06-15 07:44:00,60.4,59.9,30.12,ENE,75,0.0,0.0,98,0.00,,,0.00,VWS V14.00,2013-06-15 11:44:00,
2013-06-15 07:49:00,60.6,60.1,30.12,ENE,75,0.0,0.0,98,0.00,,,0.00,VWS V14.00,2013-06-15 11:49:00,
2013-06-15 07:54:00,61.3,60.5,30.09,ENE,75,0.0,0.0,97,0.00,,,0.00,VWS V14.00,2013-06-15 11:54:00,
2013-06-15 07:59:00,61.5,60.7,30.09,ENE,75,0.0,0.0,97,0.00,,,0.00,VWS V14.00,2013-06-15 11:59:00,
2013-06-15 08:04:00,62.1,61.2,30.12,ENE,75,0.0,0.0,97,0.00,,,0.00,VWS V14.00,2013-06-15 12:04:00,
2013-06-15 08:09:00,62.6,61.7,30.12,ENE,75,0.0,0.0,97,0.00,,,0.00,VWS V14.00,2013-06-15 12:09:00,
2013-06-15 08:14:00,63.0,62.1,30.12,ENE,75,0.0,0.0,97,0.00,,,0.00,VWS V14.00,2013-06-15 12:14:00,
2013-06-15 08:19:00,63.5,62.6,30.12,ENE,75,0.0,0.0,97,0.00,,,0.00,VWS V14.00,2013-06-15 12:19:00,
2013-06-15 08:25:00,64.2,63.3,30.12,ENE,75,0.0,0.0,97,0.00,,,0.00,VWS V14.00,2013-06-15 12:25:00,
2013-06-15 08:30:00,64.4,63.2,30.12,ENE,75,0.0,0.0,96,0.00,,,0.00,VWS V14.00,2013-06-15 12:30:00,
2013-06-15 08:35:00,65.1,64.0,30.12,ENE,75,0.0,0.0,96,0.00,,,0.00,VWS V14.00,2013-06-15 12:35:00,
2013-06-15 08:40:00,65.8,64.7,30.12,ENE,75,0.0,0.0,96,0.00,,,0.00,VWS V14.00,2013-06-15 12:40:00,
2013-06-15 08:45:00,66.4,64.9,30.12,ENE,75,0.0,0.0,95,0.00,,,0.00,VWS V14.00,2013-06-15 12:45:00,
2013-06-15 08:50:00,66.7,65.0,30.12,ENE,75,0.0,0.0,94,0.00,,,0.00,VWS V14.00,2013-06-15 12:50:00,
2013-06-15 08:55:00,67.3,65.2,30.12,ENE,75,0.0,0.0,93,0.00,,,0.00,VWS V14.00,2013-06-15 12:55:00,
2013-06-15 09:00:00,68.0,65.3,30.12,ENE,75,0.0,0.0,91,0.00,,,0.00,VWS V14.00,2013-06-15 13:00:00,
2013-06-15 09:07:00,68.7,65.0,30.15,ENE,75,0.0,0.0,88,0.00,,,0.00,VWS V14.00,2013-06-15 13:07:00,
2013-06-15 09:12:00,69.1,65.4,30.15,ENE,75,0.0,0.0,88,0.00,,,0.00,VWS V14.00,2013-06-15 13:12:00,
2013-06-15 09:17:00,69.6,64.9,30.15,ENE,75,0.0,0.0,85,0.00,,,0.00,VWS V14.00,2013-06-15 13:17:00,
2013-06-15 09:22:00,70.0,64.6,30.15,ENE,75,0.0,0.0,83,0.00,,,0.00,VWS V14.00,2013-06-15 13:22:00,
2013-06-15 09:27:00,70.3,63.9,30.15,ENE,75,0.0,0.0,80,0.00,,,0.00,VWS V14.00,2013-06-15 13:27:00,
2013-06-15 09:32:00,70.7,63.5,30.15,ENE,75,0.0,0.0,78,0.00,,,0.00,VWS V14.00,2013-06-15 13:32:00,
2013-06-15 09:38:00,70.9,63.3,30.15,ENE,75,0.0,0.0,77,0.00,,,0.00,VWS V14.00,2013-06-15 13:38:00,
2013-06-15 09:43:00,71.2,63.7,30.15,ENE,75,0.0,0.0,77,0.00,,,0.00,VWS V14.00,2013-06-15 13:43:00,
2013-06-15 09:48:00,71.6,63.3,30.15,ENE,75,0.0,0.0,75,0.00,,,0.00,VWS V14.00,2013-06-15 13:48:00,
2013-06-15 09:53:00,71.8,61.5,30.15,SE,142,0.0,0.0,70,0.00,,,0.00,VWS V14.00,2013-06-15 13:53:00,
2013-06-15 09:58:00,72.0,61.2,30.15,SW,232,0.0,0.0,69,0.00,,,0.00,VWS V14.00,2013-06-15 13:58:00,
2013-06-15 10:03:00,72.3,61.6,30.15,WSW,255,0.0,0.0,69,0.00,,,0.00,VWS V14.00,2013-06-15 14:03:00,
2013-06-15 10:08:00,72.5,60.9,30.15,NW,322,0.0,0.0,67,0.00,,,0.00,VWS V14.00,2013-06-15 14:08:00,
2013-06-15 10:13:00,72.9,61.7,30.15,NW,322,0.0,0.0,68,0.00,,,0.00,VWS V14.00,2013-06-15 14:13:00,
2013-06-15 10:18:00,72.9,59.5,30.15,SW,232,0.0,0.0,63,0.00,,,0.00,VWS V14.00,2013-06-15 14:18:00,
2013-06-15 10:23:00,73.2,59.4,30.15,ESE,120,0.0,2.5,62,0.00,,,0.00,VWS V14.00,2013-06-15 14:23:00,
2013-06-15 10:28:00,73.2,60.3,30.15,ESE,120,0.0,1.3,64,0.00,,,0.00,VWS V14.00,2013-06-15 14:28:00,
2013-06-15 10:33:00,73.2,59.4,30.15,NW,322,0.0,2.2,62,0.00,,,0.00,VWS V14.00,2013-06-15 14:33:00,
2013-06-15 10:38:00,73.8,60.4,30.12,NW,322,0.0,0.0,63,0.00,,,0.00,VWS V14.00,2013-06-15 14:38:00,
2013-06-15 10:43:00,73.6,59.8,30.12,NNW,345,1.1,2.5,62,0.00,,,0.00,VWS V14.00,2013-06-15 14:43:00,
2013-06-15 10:48:00,74.1,59.8,30.12,West,278,1.3,1.6,61,0.00,,,0.00,VWS V14.00,2013-06-15 14:48:00,
2013-06-15 10:53:00,74.3,59.5,30.12,SSW,210,0.0,2.2,60,0.00,,,0.00,VWS V14.00,2013-06-15 14:53:00,
2013-06-15 10:58:00,74.7,59.9,30.12,North,8,2.0,2.0,60,0.00,,,0.00,VWS V14.00,2013-06-15 14:58:00,
2013-06-15 11:03:00,74.8,58.1,30.12,SSE,165,1.1,2.2,56,0.00,,,0.00,VWS V14.00,2013-06-15 15:03:00,
2013-06-15 11:08:00,74.8,57.6,30.12,NW,322,1.1,1.6,55,0.00,,,0.00,VWS V14.00,2013-06-15 15:08:00,
2013-06-15 11:14:00,75.2,59.9,30.12,NW,322,0.0,0.0,59,0.00,,,0.00,VWS V14.00,2013-06-15 15:14:00,
2013-06-15 11:19:00,75.6,59.3,30.12,SE,142,0.0,0.0,57,0.00,,,0.00,VWS V14.00,2013-06-15 15:19:00,
2013-06-15 11:31:00,75.9,58.6,30.12,NNE,30,0.0,1.1,55,0.00,,,0.00,VWS V14.00,2013-06-15 15:31:00,
2013-06-15 11:36:00,76.3,60.0,30.12,SW,232,0.0,0.0,57,0.00,,,0.00,VWS V14.00,2013-06-15 15:36:00,
2013-06-15 11:41:00,76.8,60.0,30.12,SE,142,1.6,2.0,56,0.00,,,0.00,VWS V14.00,2013-06-15 15:41:00,
2013-06-15 11:46:00,76.8,58.9,30.12,WNW,300,2.0,2.2,54,0.00,,,0.00,VWS V14.00,2013-06-15 15:46:00,
2013-06-15 11:51:00,76.8,59.5,30.09,West,278,1.3,2.0,55,0.00,,,0.00,VWS V14.00,2013-06-15 15:51:00,
2013-06-15 11:56:00,77.0,58.6,30.09,SE,142,1.1,2.5,53,0.00,,,0.00,VWS V14.00,2013-06-15 15:56:00,
2013-06-15 12:07:00,77.5,59.1,30.12,SE,142,0.0,0.0,53,0.00,,,0.00,VWS V14.00,2013-06-15 16:07:00,
2013-06-15 12:12:00,78.1,58.0,30.12,West,278,2.0,2.0,50,0.00,,,0.00,VWS V14.00,2013-06-15 16:12:00,
2013-06-15 12:17:00,77.9,57.2,30.12,WSW,255,1.1,2.9,49,0.00,,,0.00,VWS V14.00,2013-06-15 16:17:00,
2013-06-15 12:23:00,77.9,58.3,30.12,SSW,210,0.0,2.7,51,0.00,,,0.00,VWS V14.00,2013-06-15 16:23:00,
2013-06-15 12:28:00,78.3,57.0,30.12,West,278,2.0,3.1,48,0.00,,,0.00,VWS V14.00,2013-06-15 16:28:00,
2013-06-15 12:33:00,78.4,57.7,30.12,WSW,255,1.3,2.0,49,0.00,,,0.00,VWS V14.00,2013-06-15 16:33:00,
2013-06-15 12:38:00,78.4,58.3,30.09,SE,142,0.0,1.6,50,0.00,,,0.00,VWS V14.00,2013-06-15 16:38:00,
2013-06-15 12:43:00,77.9,57.8,30.09,West,278,0.0,2.5,50,0.00,,,0.00,VWS V14.00,2013-06-15 16:43:00,
2013-06-15 12:48:00,78.1,57.4,30.09,NNW,345,0.0,0.9,49,0.00,,,0.00,VWS V14.00,2013-06-15 16:48:00,
2013-06-15 12:53:00,78.3,58.1,30.12,WNW,300,1.3,2.0,50,0.00,,,0.00,VWS V14.00,2013-06-15 16:53:00,
2013-06-15 12:58:00,79.2,57.8,30.12,SW,232,0.0,2.5,48,0.00,,,0.00,VWS V14.00,2013-06-15 16:58:00,
2013-06-15 13:03:00,79.2,57.2,30.12,North,8,2.2,2.5,47,0.00,,,0.00,VWS V14.00,2013-06-15 17:03:00,
2013-06-15 13:08:00,79.7,58.3,30.12,ESE,120,2.5,2.5,48,0.00,,,0.00,VWS V14.00,2013-06-15 17:08:00,
2013-06-15 13:13:00,79.7,56.5,30.12,South,188,0.0,5.6,45,0.00,,,0.00,VWS V14.00,2013-06-15 17:13:00,
2013-06-15 13:18:00,79.3,57.4,30.12,SE,142,1.1,2.2,47,0.00,,,0.00,VWS V14.00,2013-06-15 17:18:00,
2013-06-15 13:23:00,78.8,57.5,30.12,NW,322,0.0,1.6,48,0.00,,,0.00,VWS V14.00,2013-06-15 17:23:00,
2013-06-15 13:28:00,79.0,56.5,30.12,West,278,0.0,2.0,46,0.00,,,0.00,VWS V14.00,2013-06-15 17:28:00,
2013-06-15 13:33:00,79.5,57.5,30.12,SSE,165,2.0,2.0,47,0.00,,,0.00,VWS V14.00,2013-06-15 17:33:00,
2013-06-15 13:38:00,79.3,56.8,30.12,SW,232,0.0,2.0,46,0.00,,,0.00,VWS V14.00,2013-06-15 17:38:00,
2013-06-15 13:43:00,79.9,57.3,30.12,NNW,345,0.0,2.2,46,0.00,,,0.00,VWS V14.00,2013-06-15 17:43:00,
2013-06-15 13:48:00,79.5,58.1,30.12,SSE,165,0.9,3.1,48,0.00,,,0.00,VWS V14.00,2013-06-15 17:48:00,
2013-06-15 13:53:00,80.2,58.2,30.12,SW,232,0.9,2.2,47,0.00,,,0.00,VWS V14.00,2013-06-15 17:53:00,
2013-06-15 13:58:00,79.5,56.3,30.12,ENE,75,0.0,2.7,45,0.00,,,0.00,VWS V14.00,2013-06-15 17:58:00,
2013-06-15 14:03:00,79.2,55.4,30.12,WNW,300,1.3,2.0,44,0.00,,,0.00,VWS V14.00,2013-06-15 18:03:00,
2013-06-15 14:08:00,78.4,56.0,30.12,WNW,300,0.0,1.6,46,0.00,,,0.00,VWS V14.00,2013-06-15 18:08:00,
2013-06-15 14:13:00,79.3,57.4,30.12,WNW,300,0.0,0.0,47,0.00,,,0.00,VWS V14.00,2013-06-15 18:13:00,
2013-06-15 14:18:00,79.9,57.9,30.12,SSW,210,0.0,2.0,47,0.00,,,0.00,VWS V14.00,2013-06-15 18:18:00,
2013-06-15 14:23:00,82.2,59.4,30.09,WNW,300,0.0,1.6,46,0.00,,,0.00,VWS V14.00,2013-06-15 18:23:00,
2013-06-15 14:28:00,82.9,56.8,30.09,South,188,1.6,3.1,41,0.00,,,0.00,VWS V14.00,2013-06-15 18:28:00,
2013-06-15 14:33:00,82.6,56.5,30.09,NW,322,2.9,3.1,41,0.00,,,0.00,VWS V14.00,2013-06-15 18:33:00,
2013-06-15 14:38:00,81.9,55.9,30.09,WNW,300,0.9,3.6,41,0.00,,,0.00,VWS V14.00,2013-06-15 18:38:00,
2013-06-15 14:43:00,81.9,56.5,30.09,North,8,0.0,1.6,42,0.00,,,0.00,VWS V14.00,2013-06-15 18:43:00,
2013-06-15 14:48:00,81.9,55.2,30.09,WNW,300,2.7,3.4,40,0.00,,,0.00,VWS V14.00,2013-06-15 18:48:00,
2013-06-15 14:53:00,82.0,56.0,30.09,NNW,345,1.1,2.7,41,0.00,,,0.00,VWS V14.00,2013-06-15 18:53:00,
2013-06-15 14:58:00,81.0,55.1,30.09,NW,322,0.0,2.2,41,0.00,,,0.00,VWS V14.00,2013-06-15 18:58:00,
2013-06-15 15:03:00,81.3,56.1,30.09,NW,322,2.7,3.4,42,0.00,,,0.00,VWS V14.00,2013-06-15 19:03:00,
2013-06-15 15:08:00,81.1,54.5,30.06,WNW,300,2.5,4.3,40,0.00,,,0.00,VWS V14.00,2013-06-15 19:08:00,
2013-06-15 15:13:00,81.3,55.4,30.06,WNW,300,0.0,2.5,41,0.00,,,0.00,VWS V14.00,2013-06-15 19:13:00,
2013-06-15 15:18:00,81.7,55.7,30.06,SW,232,0.0,2.5,41,0.00,,,0.00,VWS V14.00,2013-06-15 19:18:00,
2013-06-15 15:23:00,81.9,55.9,30.06,SSW,210,0.0,0.0,41,0.00,,,0.00,VWS V14.00,2013-06-15 19:23:00,
2013-06-15 15:28:00,81.1,55.9,30.06,SSW,210,0.0,0.0,42,0.00,,,0.00,VWS V14.00,2013-06-15 19:28:00,
2013-06-15 15:34:00,80.4,55.9,30.06,WNW,300,0.0,0.0,43,0.00,,,0.00,VWS V14.00,2013-06-15 19:34:00,
2013-06-15 15:39:00,80.6,54.8,30.09,WNW,300,0.0,0.0,41,0.00,,,0.00,VWS V14.00,2013-06-15 19:39:00,
2013-06-15 15:44:00,80.8,55.6,30.09,NW,322,2.5,2.7,42,0.00,,,0.00,VWS V14.00,2013-06-15 19:44:00,
2013-06-15 15:49:00,81.1,57.2,30.09,SE,142,0.0,0.0,44,0.00,,,0.00,VWS V14.00,2013-06-15 19:49:00,
2013-06-15 15:54:00,81.3,57.3,30.09,SSW,210,1.6,2.5,44,0.00,,,0.00,VWS V14.00,2013-06-15 19:54:00,
2013-06-15 15:59:00,81.5,56.9,30.09,WSW,255,0.0,0.0,43,0.00,,,0.00,VWS V14.00,2013-06-15 19:59:00,
2013-06-15 16:04:00,81.9,56.5,30.09,SW,232,0.0,0.0,42,0.00,,,0.00,VWS V14.00,2013-06-15 20:04:00,
2013-06-15 16:09:00,81.9,56.5,30.09,WSW,255,1.3,2.2,42,0.00,,,0.00,VWS V14.00,2013-06-15 20:09:00,
2013-06-15 16:14:00,82.0,56.0,30.09,West,278,0.0,0.0,41,0.00,,,0.00,VWS V14.00,2013-06-15 20:14:00,
2013-06-15 16:19:00,81.9,55.9,30.09,WNW,300,0.0,0.0,41,0.00,,,0.00,VWS V14.00,2013-06-15 20:19:00,
2013-06-15 16:24:00,81.9,57.2,30.06,WNW,300,0.9,2.2,43,0.00,,,0.00,VWS V14.00,2013-06-15 20:24:00,
2013-06-15 18:06:00,80.2,56.4,30.06,SE,142,0.0,0.0,44,0.00,,,0.00,VWS V14.00,2013-06-15 22:06:00,
2013-06-15 18:12:00,80.2,56.4,30.06,ENE,75,0.0,1.1,44,0.00,,,0.00,VWS V14.00,2013-06-15 22:12:00,
2013-06-15 18:17:00,80.1,56.8,30.06,SE,142,0.0,1.1,45,0.00,,,0.00,VWS V14.00,2013-06-15 22:17:00,
2013-06-15 18:22:00,79.9,56.7,30.06,SE,142,0.0,0.0,45,0.00,,,0.00,VWS V14.00,2013-06-15 22:22:00,
2013-06-15 18:27:00,79.9,56.0,30.06,SE,142,0.0,0.0,44,0.00,,,0.00,VWS V14.00,2013-06-15 22:27:00,
2013-06-15 18:32:00,79.5,57.5,30.06,West,278,0.0,2.0,47,0.00,,,0.00,VWS V14.00,2013-06-15 22:32:00,
2013-06-15 18:37:00,79.5,57.0,30.06,WSW,255,0.0,1.6,46,0.00,,,0.00,VWS V14.00,2013-06-15 22:37:00,
2013-06-15 18:42:00,79.5,57.0,30.06,East,98,0.0,0.0,46,0.00,,,0.00,VWS V14.00,2013-06-15 22:42:00,
2013-06-15 18:47:00,79.5,57.0,30.06,East,98,0.0,0.0,46,0.00,,,0.00,VWS V14.00,2013-06-15 22:47:00,
2013-06-15 18:52:00,79.3,58.5,30.06,East,98,0.0,0.0,49,0.00,,,0.00,VWS V14.00,2013-06-15 22:52:00,
2013-06-15 18:57:00,79.2,57.8,30.06,East,98,0.0,0.0,48,0.00,,,0.00,VWS V14.00,2013-06-15 22:57:00,
2013-06-15 19:02:00,78.8,57.5,30.06,East,98,0.0,0.0,48,0.00,,,0.00,VWS V14.00,2013-06-15 23:02:00,
2013-06-15 19:07:00,78.8,57.5,30.06,East,98,0.0,0.0,48,0.00,,,0.00,VWS V14.00,2013-06-15 23:07:00,
2013-06-15 19:12:00,78.4,58.8,30.06,East,98,0.0,0.0,51,0.00,,,0.00,VWS V14.00,2013-06-15 23:12:00,
2013-06-15 19:18:00,78.1,60.6,30.06,East,98,0.0,0.0,55,0.00,,,0.00,VWS V14.00,2013-06-15 23:18:00,
2013-06-15 19:23:00,77.5,60.6,30.06,East,98,0.0,0.0,56,0.00,,,0.00,VWS V14.00,2013-06-15 23:23:00,
2013-06-15 19:28:00,77.4,60.5,30.06,East,98,0.0,0.0,56,0.00,,,0.00,VWS V14.00,2013-06-15 23:28:00,
2013-06-15 19:33:00,77.0,61.1,30.06,East,98,0.0,0.0,58,0.00,,,0.00,VWS V14.00,2013-06-15 23:33:00,
2013-06-15 19:38:00,76.6,62.2,30.06,East,98,0.0,0.0,61,0.00,,,0.00,VWS V14.00,2013-06-15 23:38:00,
2013-06-15 19:43:00,76.1,62.2,30.06,East,98,0.0,0.0,62,0.00,,,0.00,VWS V14.00,2013-06-15 23:43:00,
2013-06-15 19:48:00,75.7,62.3,30.06,East,98,0.0,0.0,63,0.00,,,0.00,VWS V14.00,2013-06-15 23:48:00,
2013-06-15 19:53:00,75.6,62.5,30.06,East,98,0.0,0.0,64,0.00,,,0.00,VWS V14.00,2013-06-15 23:53:00,
2013-06-15 19:58:00,75.0,62.9,30.06,East,98,0.0,0.0,66,0.00,,,0.00,VWS V14.00,2013-06-15 23:58:00,
2013-06-15 20:03:00,74.7,62.6,30.06,East,98,0.0,0.0,66,0.00,,,0.00,VWS V14.00,2013-06-16 00:03:00,
2013-06-15 20:08:00,74.3,62.6,30.03,East,98,0.0,0.0,67,0.00,,,0.00,VWS V14.00,2013-06-16 00:08:00,
2013-06-15 20:13:00,73.9,62.3,30.03,East,98,0.0,0.0,67,0.00,,,0.00,VWS V14.00,2013-06-16 00:13:00,
2013-06-15 20:18:00,73.6,62.4,30.03,East,98,0.0,0.0,68,0.00,,,0.00,VWS V14.00,2013-06-16 00:18:00,
2013-06-15 20:23:00,73.2,62.9,30.06,East,98,0.0,0.0,70,0.00,,,0.00,VWS V14.00,2013-06-16 00:23:00,
2013-06-15 20:28:00,72.9,62.1,30.06,East,98,0.0,0.0,69,0.00,,,0.00,VWS V14.00,2013-06-16 00:28:00,
2013-06-15 20:33:00,72.5,61.3,30.06,East,98,0.0,0.0,68,0.00,,,0.00,VWS V14.00,2013-06-16 00:33:00,
2013-06-15 20:38:00,72.3,61.2,30.03,East,98,0.0,0.0,68,0.00,,,0.00,VWS V14.00,2013-06-16 00:38:00,
2013-06-15 20:43:00,72.0,61.2,30.03,East,98,0.0,0.0,69,0.00,,,0.00,VWS V14.00,2013-06-16 00:43:00,
2013-06-15 20:48:00,71.6,60.9,30.03,East,98,0.0,0.0,69,0.00,,,0.00,VWS V14.00,2013-06-16 00:48:00,
2013-06-15 20:53:00,71.4,61.1,30.03,East,98,0.0,0.0,70,0.00,,,0.00,VWS V14.00,2013-06-16 00:53:00,
2013-06-15 20:58:00,70.9,61.0,30.03,East,98,0.0,0.0,71,0.00,,,0.00,VWS V14.00,2013-06-16 00:58:00,
2013-06-15 21:03:00,70.5,61.1,30.03,East,98,0.0,0.0,72,0.00,,,0.00,VWS V14.00,2013-06-16 01:03:00,
2013-06-15 21:08:00,70.2,60.7,30.06,East,98,0.0,0.0,72,0.00,,,0.00,VWS V14.00,2013-06-16 01:08:00,
2013-06-15 21:14:00,70.0,60.9,30.06,East,98,0.0,0.0,73,0.00,,,0.00,VWS V14.00,2013-06-16 01:14:00,
2013-06-15 21:19:00,69.6,61.7,30.06,East,98,0.0,0.0,76,0.00,,,0.00,VWS V14.00,2013-06-16 01:19:00,
2013-06-15 21:24:00,69.4,61.9,30.06,East,98,0.0,0.0,77,0.00,,,0.00,VWS V14.00,2013-06-16 01:24:00,
2013-06-15 21:29:00,69.1,61.6,30.06,East,98,0.0,0.0,77,0.00,,,0.00,VWS V14.00,2013-06-16 01:29:00,
2013-06-15 21:34:00,68.9,61.4,30.06,East,98,0.0,0.0,77,0.00,,,0.00,VWS V14.00,2013-06-16 01:34:00,
2013-06-15 21:39:00,68.7,61.6,30.06,East,98,0.0,0.0,78,0.00,,,0.00,VWS V14.00,2013-06-16 01:39:00,
2013-06-15 21:44:00,68.5,61.4,30.06,East,98,0.0,0.0,78,0.00,,,0.00,VWS V14.00,2013-06-16 01:44:00,
2013-06-15 21:49:00,68.4,61.6,30.06,East,98,0.0,0.0,79,0.00,,,0.00,VWS V14.00,2013-06-16 01:49:00,
2013-06-15 21:54:00,68.2,61.4,30.03,SE,142,0.0,0.0,79,0.00,,,0.00,VWS V14.00,2013-06-16 01:54:00,
2013-06-15 21:59:00,68.0,61.2,30.03,SE,142,0.0,0.0,79,0.00,,,0.00,VWS V14.00,2013-06-16 01:59:00,
2013-06-15 22:04:00,67.8,61.4,30.03,SE,142,0.0,0.0,80,0.00,,,0.00,VWS V14.00,2013-06-16 02:04:00,
2013-06-15 22:09:00,67.5,61.4,30.06,SE,142,0.0,0.0,81,0.00,,,0.00,VWS V14.00,2013-06-16 02:09:00,
2013-06-15 22:14:00,67.5,61.4,30.06,SE,142,0.0,0.0,81,0.00,,,0.00,VWS V14.00,2013-06-16 02:14:00,
2013-06-15 22:19:00,67.3,61.3,30.03,SE,142,0.0,0.0,81,0.00,,,0.00,VWS V14.00,2013-06-16 02:19:00,
2013-06-15 22:24:00,67.1,61.1,30.03,SE,142,0.0,0.0,81,0.00,,,0.00,VWS V14.00,2013-06-16 02:24:00,
2013-06-15 22:30:00,66.9,60.9,30.03,SE,142,0.0,0.0,81,0.00,,,0.00,VWS V14.00,2013-06-16 02:30:00,
2013-06-15 22:35:00,66.9,61.2,30.06,SE,142,0.0,0.0,82,0.00,,,0.00,VWS V14.00,2013-06-16 02:35:00,
2013-06-15 22:40:00,66.7,61.1,30.06,SE,142,0.0,0.0,82,0.00,,,0.00,VWS V14.00,2013-06-16 02:40:00,
2013-06-15 22:45:00,66.6,60.9,30.06,SE,142,0.0,0.0,82,0.00,,,0.00,VWS V14.00,2013-06-16 02:45:00,
2013-06-15 22:50:00,66.4,60.7,30.06,SE,142,0.0,0.0,82,0.00,,,0.00,VWS V14.00,2013-06-16 02:50:00,
2013-06-15 22:55:00,66.4,60.7,30.06,SE,142,0.0,0.0,82,0.00,,,0.00,VWS V14.00,2013-06-16 02:55:00,
2013-06-15 23:00:00,66.2,60.9,30.06,SE,142,0.0,0.0,83,0.00,,,0.00,VWS V14.00,2013-06-16 03:00:00,
2013-06-15 23:05:00,66.0,61.0,30.06,SE,142,0.0,0.0,84,0.00,,,0.00,VWS V14.00,2013-06-16 03:05:00,
2013-06-15 23:10:00,66.0,61.0,30.06,SE,142,0.0,0.0,84,0.00,,,0.00,VWS V14.00,2013-06-16 03:10:00,
2013-06-15 23:15:00,65.8,60.9,30.06,SE,142,0.0,0.0,84,0.00,,,0.00,VWS V14.00,2013-06-16 03:15:00,
2013-06-15 23:20:00,65.8,61.2,30.06,SE,142,0.0,0.0,85,0.00,,,0.00,VWS V14.00,2013-06-16 03:20:00,
2013-06-15 23:25:00,65.7,61.4,30.06,SE,142,0.0,0.0,86,0.00,,,0.00,VWS V14.00,2013-06-16 03:25:00,
2013-06-15 23:30:00,65.7,61.0,30.06,SE,142,0.0,0.0,85,0.00,,,0.00,VWS V14.00,2013-06-16 03:30:00,
2013-06-15 23:35:00,65.7,61.4,30.06,SE,142,0.0,0.0,86,0.00,,,0.00,VWS V14.00,2013-06-16 03:35:00,
2013-06-15 23:41:00,65.7,61.7,30.06,SE,142,0.0,0.0,87,0.00,,,0.00,VWS V14.00,2013-06-16 03:41:00,
2013-06-15 23:46:00,65.7,61.7,30.06,SE,142,0.0,0.0,87,0.00,,,0.00,VWS V14.00,2013-06-16 03:46:00,
2013-06-15 23:51:00,65.5,61.5,30.09,SE,142,0.0,0.0,87,0.00,,,0.00,VWS V14.00,2013-06-16 03:51:00,
2013-06-15 23:56:00,65.5,61.5,30.09,SE,142,0.0,0.0,87,0.00,,,0.00,VWS V14.00,2013-06-16 03:56:00,